Weather History for KHLC - July, 2014

Change the Weather History Date:

Saturday, July 19, 2014

  Actual Average Record
Temperature  
Mean Temperature 74 °F 80 °F  
Max Temperature 82 °F 93 °F 112 °F (1934)
Min Temperature 65 °F 66 °F 55 °F (2009)
Cooling Degree Days 8    
Growing Degree Days 22 (Base 50)    
Moisture  
Dew Point 64 °F    
Average Humidity 80    
Maximum Humidity 94    
Minimum Humidity 62    
Precipitation  
Precipitation 0.00 in 0.11 in 0.08 in (2000)
Month to date precipitation 1.79 2.28  
Year to date precipitation 13.66 13.54  
Sea Level Pressure  
Sea Level Pressure 29.92 in    
Wind  
Wind Speed 10 mph (SSE)    
Max Wind Speed 15 mph    
Max Gust Speed 21 mph    
Visibility 10 miles    
Events      
T = Trace of Precipitation, MM = Missing Value Source: NWS Daily Summary

Daily Weather History Graph

Daily Weather History Graph

Search for Another Location

Airport or City:

Trip Planner

Search our weather history database for the weather conditions in past years. The results will help you decide how hot, cold, wet, or windy it might be!

Date:

Astronomy

Jul. 19, 2014 Rise Set
Actual Time 6:28 AM CDT 9:02 PM CDT
Civil Twilight 5:56 AM CDT 9:33 PM CDT
Nautical Twilight 5:18 AM CDT 10:12 PM CDT
Astronomical Twilight 4:34 AM CDT 10:55 PM CDT
Moon 1:03 AM CDT (7/19) 2:46 PM CDT (7/19)
Length of Visible Light 15h 36m
Length of Day
14h 34m
Last Quarter, 43% of the Moon is Illuminated
Jul 19
Last Quarter
Jul 26
New
Aug 3
First Quarter
Aug 10
Full
Aug 17
Last Quarter

Hourly Weather History & Observations

Time (CDT) Temp. Heat Index Dew Point Humidity Pressure Visibility Wind Dir Wind Speed Gust Speed Precip Events Conditions
12:26 AM 64.4 °F - 60.8 °F 88% 29.99 in 10.0 mi SSE 11.5 mph - N/A   Mostly Cloudy
12:53 AM 64.9 °F - 61.0 °F 87% 29.94 in 10.0 mi South 11.5 mph 19.6 mph N/A   Overcast
1:04 AM 64.9 °F - 61.0 °F 87% 29.99 in 10.0 mi South 10.4 mph - N/A   Overcast
1:53 AM 64.9 °F - 62.1 °F 90% 29.94 in 10.0 mi South 12.7 mph - N/A   Overcast
2:53 AM 64.9 °F - 62.1 °F 90% 29.92 in 10.0 mi South 12.7 mph - N/A   Overcast
3:53 AM 64.9 °F - 62.1 °F 90% 29.91 in 10.0 mi South 10.4 mph - N/A   Overcast
4:23 AM 64.9 °F - 62.1 °F 90% 29.95 in 10.0 mi South 10.4 mph - N/A   Overcast
4:49 AM 64.4 °F - 62.6 °F 94% 29.95 in 10.0 mi South 9.2 mph - N/A   Overcast
4:53 AM 64.9 °F - 62.1 °F 90% 29.89 in 10.0 mi South 8.1 mph - N/A   Overcast
5:53 AM 66.0 °F - 62.1 °F 87% 29.90 in 10.0 mi SSW 6.9 mph - N/A   Overcast
6:53 AM 66.0 °F - 62.1 °F 87% 29.91 in 10.0 mi South 8.1 mph - N/A   Overcast
7:53 AM 66.9 °F - 62.1 °F 84% 29.93 in 10.0 mi South 6.9 mph - N/A   Overcast
8:40 AM 66.9 °F - 63.0 °F 87% 29.99 in 10.0 mi South 8.1 mph - N/A   Overcast
8:53 AM 68.0 °F - 63.0 °F 84% 29.94 in 10.0 mi South 9.2 mph - N/A   Overcast
9:53 AM 69.1 °F - 63.0 °F 81% 29.96 in 9.0 mi South 6.9 mph - N/A   Overcast
10:53 AM 69.1 °F - 63.0 °F 81% 29.97 in 10.0 mi SE 5.8 mph - N/A   Overcast
11:53 AM 70.0 °F - 64.0 °F 81% 29.96 in 10.0 mi SSE 8.1 mph - N/A   Overcast
12:53 PM 72.0 °F - 64.0 °F 76% 29.95 in 10.0 mi SSE 8.1 mph - N/A   Overcast
1:53 PM 73.9 °F - 64.9 °F 73% 29.92 in 10.0 mi SSE 11.5 mph - N/A   Overcast
2:53 PM 75.9 °F - 64.9 °F 69% 29.88 in 10.0 mi South 13.8 mph 20.7 mph N/A   Overcast
3:53 PM 79.0 °F - 66.0 °F 64% 29.89 in 10.0 mi SSE 8.1 mph - N/A   Overcast
4:28 PM 80.1 °F 82.1 °F 66.0 °F 62% 29.93 in 10.0 mi SSE 15.0 mph 20.7 mph N/A   Scattered Clouds
4:53 PM 80.1 °F 82.1 °F 66.0 °F 62% 29.86 in 10.0 mi SE 13.8 mph - N/A   Partly Cloudy
5:53 PM 81.0 °F 83.3 °F 66.9 °F 62% 29.85 in 10.0 mi SSE 15.0 mph - N/A   Clear
6:53 PM 81.0 °F 83.8 °F 68.0 °F 65% 29.85 in 10.0 mi SSE 12.7 mph - N/A   Clear
7:53 PM 80.1 °F 82.3 °F 66.9 °F 64% 29.85 in 10.0 mi SSE 10.4 mph - N/A   Clear
8:53 PM 77.0 °F - 68.0 °F 74% 29.84 in 10.0 mi SE 10.4 mph - N/A   Clear
10:53 PM 73.0 °F - 66.9 °F 81% 29.85 in 10.0 mi SSE 12.7 mph - N/A   Clear
11:53 PM 71.1 °F - 66.9 °F 87% 29.84 in 10.0 mi SSE 10.4 mph - N/A   Clear